User: anonymous   Login
Location: Unspecified
(49.8670°N, 0.0000°E)
Time: 17:42:13
(UTC+00:00)
Language:

ISS - Orbit

View from above orbital plane
View from above orbital plane
View from above satellite
View from above satellite

Ground track
Ground track

The orbit data is extracted from the following two-line orbital elements,

1 25544U 98067A   19176.80175972  .00016717  00000-0  10270-3 0  9022
2 25544  51.6416 318.5503 0007991  85.9770 274.2294 15.51233160 16589
Epoch (UTC): 25 June 2019 19:14:32
Eccentricity: 0.0007991
inclination: 51.6416°
perigee height: 408 km
apogee height: 418 km
right ascension of ascending node: 318.5503°
argument of perigee: 85.9770°
revolutions per day: 15.51233160
mean anomaly at epoch: 274.2294°
orbit number at epoch: 1658

The dashed part of the orbit path shows where the satellite is in the earth's shadow,  

DLR